420  
AXUS43 KLBF 280210  
MISLBF  
 
WESTERN AND NORTH CENTRAL NEBRASKA HOURLY WEATHER ROUNDUP  
NATIONAL WEATHER SERVICE NORTH PLATTE NE  
900 PM CDT MON MAR 27 2017  
 
NOTE: "FAIR" INDICATES FEW OR NO CLOUDS BELOW 12,000 FEET WITH NO  
SIGNIFICANT WEATHER AND/OR OBSTRUCTIONS TO VISIBILITY.  
 
NOTE: STATIONS NOT REPORTING VARIABLES SUCH AS SKY/WEATHER OR  
PRESSURE ARE PROVIDED BY RAWS AND APRS NETWORKS AND ARE NOT UNDER  
NATIONAL WEATHER SERVICE QUALITY CONTROL.  
   
..OBSERVATIONS IN AND NEAR THE EASTERN PANHANDLE OF NEBRASKA
 
 
 
CITY SKY/WX TMP DP RH WIND PRES REMARKS  
PINE RIDGE CLEAR 51 39 63 E13 29.85R  
CHADRON MOCLDY 52 35 52 NE9 29.83R  
ALLIANCE CLOUDY 57 34 41 S14G20 29.81R  
SIDNEY PTCLDY 52 32 46 SE10 29.83R  
CRESCENT LAKE N/A 54 36 50 SE5 N/A  

 
   
..OBSERVATIONS IN NORTHERN NEBRASKA AND FAR SOUTHERN SOUTH DAKOTA
 
 
 
CITY SKY/WX TMP DP RH WIND PRES REMARKS  
WINNER CLOUDY 55 36 48 E10 29.91R  
VALENTINE CLOUDY 55 38 52 SE8 29.89R  
THEDFORD CLOUDY 53 43 68 SE8 29.89R  
AINSWORTH CLOUDY 54 44 69 SE9 29.90R  
O'NEILL CLEAR 48 38 68 E7 29.94R  
ORD CLEAR 51 40 65 SE9 29.92R  
BROKEN BOW CLEAR 49 42 77 SE8 29.91R  
VALENTINE NWR N/A 55 41 59 SE13 N/A  
HALSEY N/A 54 41 61 SE7G15 N/A  
BUTTE N/A 49 38 65 E6 N/A  
CHAMBERS N/A 50 35 57 SE3 N/A  
EWING N/A 47 39 74 CALM N/A  

 
   
..OBSERVATIONS IN SOUTHWEST NEBRASKA AND FAR NORTHEAST COLORADO
 
 
 
CITY SKY/WX TMP DP RH WIND PRES REMARKS  
WRAY CLOUDY 59 34 38 SE15 29.85  
HOLYOKE FAIR 55 36 47 SE12 29.85R  
IMPERIAL CLEAR 51 39 63 SE10 29.86R  
OGALLALA CLEAR 56 37 49 SE9 29.85R  
NORTH PLATTE CLEAR 53 42 66 SE9 29.88R  
MCCOOK CLEAR 52 42 69 E9 29.89R  
LEXINGTON CLEAR 51 43 73 SE12G18 29.92R  
STAPLETON N/A 50 42 74 CALM N/A  
GOTHENBURG N/A 54 42 62 E6 N/A  
CALLAWAY N/A 51 42 71 SE8 N/A  

 
   
..OBSERVATIONS IN CENTRAL LINCOLN COUNTY AREA
 
 
 
CITY SKY/WX TMP DP RH WIND PRES REMARKS  
N.P. AIRPORT CLEAR 53 42 66 SE9 29.88R  
N.P. DOWNTOWN N/A 54 43 66 SE3 N/A  
N.P. SOUTHEAST N/A 53 43 68 E5 N/A  
N.P. HILLCREST N/A 53 44 71 SE9 N/A  

 
   
..SOME OBSERVATIONS FROM AROUND THE REGION
 
 
 
CITY SKY/WX TMP DP RH WIND PRES REMARKS  
DENVER CLOUDY 52 38 58 VRB3 29.80S  
LIMON CLOUDY 48 37 65 E10 29.84R  
ASPEN CLOUDY 42 25 50 W8 29.83R  
LARAMIE LGT RAIN 39 35 86 S12 29.87R WCI 32  
CASPER CLOUDY 46 31 55 NE8 29.83R  
CHEYENNE RAIN 44 39 82 S8 29.87R  
SCOTTSBLUFF LGT RAIN 59 33 37 VRB6 29.82R  
GRAND ISLAND CLEAR 45 42 89 S7 29.97R  
OMAHA CLOUDY 50 40 68 E5 29.97S  
SIOUX FALLS PTCLDY 50 39 66 SE9 29.98R  
PIERRE CLEAR 45 31 58 NE7 29.91R  
RAPID CITY MOCLDY 50 35 56 NE10 29.88R  
BISMARCK PTCLDY 51 34 52 NE8 29.96R  
KANSAS CITY CLOUDY 51 46 83 NE5 29.96R  
HILL CITY PTCLDY 53 42 66 E12 29.92R  
WICHITA CLOUDY 53 46 77 E6 29.96R  
DODGE CITY CLEAR 50 41 71 E8 29.91R  
OKLAHOMA CITY CLEAR 61 46 57 NE12 29.90R  
DALLAS CLEAR 65 55 70 E8 29.86R  
AMARILLO CLEAR 58 38 47 SE15 29.86R  

 
 
 
CLICK HERE TO GO TO PREVIOUS BULLETINS.

The Nexlab NE Page Main Text Page